Southern Pines, NC

2:10 PM EST on December 07, 2019 (GMT -0500)
Moore County

Weather History for KSOP - November, 2019

Change the Weather History Date:

Saturday, November 16, 2019

  Actual Average Record
Temperature  
Mean Temperature 44 °F -  
Max Temperature 48 °F 59 °F 80 °F (2005)
Min Temperature 41 °F 38 °F 24 °F (2014)
Degree Days  
Heating Degree Days 20    
Moisture  
Dew Point 33 °F    
Average Humidity 64    
Maximum Humidity 86    
Minimum Humidity 50    
Precipitation  
Precipitation 0.02 in - - ()
Sea Level Pressure  
Sea Level Pressure 30.10 in    
Wind  
Wind Speed 13 mph (NNE)    
Max Wind Speed 21 mph    
Max Gust Speed 31 mph    
Visibility 10 miles    
Events Rain    
Averages and records for this station are not official NWS values.
T = Trace of Precipitation, MM = Missing Value Source: NWS Daily Summary

Daily Weather History Graph

Daily Weather History Graph

Search for Another Location

Airport or City:

Astronomy

Nov. 16, 2019 Rise Set
Actual Time 6:53 AM EST 5:10 PM EST
Civil Twilight 6:26 AM EST 5:38 PM EST
Nautical Twilight 5:55 AM EST 6:08 PM EST
Astronomical Twilight 5:25 AM EST 6:38 PM EST
Moon 8:45 PM EST (11/16) 10:41 AM EST (11/16)
Length of Visible Light 11h 11m
Length of Day
10h 17m
Waning Gibbous, 82% of the Moon is Illuminated
Nov 16
Waning Gibbous
Nov 19
Last Quarter
Nov 26
New
Dec 4
First Quarter
Dec 12
Full

Hourly Weather History & Observations

Time (EST) Temp. Windchill Dew Point Humidity Pressure Visibility Wind Dir Wind Speed Gust Speed Precip Events Conditions
12:48 AM 44.6 °F 39.7 °F 37.4 °F 76% 30.06 in 10.0 mi NNE 9.2 mph - N/A   Overcast
12:56 AM 44.1 °F 38.1 °F 37.0 °F 76% 30.08 in 10.0 mi NNE 11.5 mph - N/A   Overcast
1:56 AM 46.0 °F 40.6 °F 35.1 °F 66% 30.07 in 10.0 mi NNE 11.5 mph 17.3 mph 0.00 in   Overcast
2:56 AM 46.0 °F 40.6 °F 37.0 °F 71% 30.06 in 10.0 mi NE 11.5 mph 21.9 mph N/A   Overcast
3:56 AM 46.9 °F - 34.0 °F 61% 30.05 in 10.0 mi NNE 9.2 mph - 0.00 in   Overcast
4:56 AM 46.9 °F - 32.0 °F 56% 30.05 in 10.0 mi NNE 11.5 mph 17.3 mph N/A   Overcast
5:56 AM 46.0 °F 40.2 °F 30.0 °F 54% 30.07 in 10.0 mi NNE 12.7 mph 19.6 mph N/A   Overcast
7:37 AM 46.4 °F 40.1 °F 28.4 °F 50% 30.08 in 10.0 mi NNE 15.0 mph 20.7 mph N/A   Overcast
7:56 AM 46.0 °F 39.9 °F 30.0 °F 54% 30.11 in 10.0 mi NNE 13.8 mph 19.6 mph N/A   Overcast
8:56 AM 45.0 °F 38.5 °F 30.0 °F 56% 30.13 in 10.0 mi NNE 13.8 mph 21.9 mph N/A   Overcast
9:56 AM 45.0 °F 36.9 °F 30.0 °F 56% 30.14 in 10.0 mi NNE 20.7 mph 28.8 mph N/A   Overcast
10:56 AM 45.0 °F 37.6 °F 32.0 °F 60% 30.14 in 10.0 mi NNE 17.3 mph 25.3 mph 0.00 in Rain Light Rain
11:56 AM 46.0 °F 39.6 °F 30.9 °F 56% 30.12 in 10.0 mi NNE 15.0 mph 25.3 mph 0.00 in   Overcast
12:56 PM 46.9 °F - 32.0 °F 56% 30.11 in 10.0 mi NE 15.0 mph 25.3 mph N/A   Overcast
1:56 PM 48.0 °F - 33.1 °F 56% 30.08 in 10.0 mi NNE 15.0 mph 29.9 mph N/A   Overcast
2:56 PM 48.0 °F - 33.1 °F 56% 30.09 in 10.0 mi NNE 15.0 mph 26.5 mph N/A   Overcast
3:56 PM 48.0 °F - 35.1 °F 61% 30.09 in 10.0 mi NNE 19.6 mph 26.5 mph N/A   Overcast
4:56 PM 46.9 °F - 35.1 °F 63% 30.10 in 10.0 mi NNE 18.4 mph 31.1 mph N/A   Overcast
5:56 PM 46.0 °F 39.0 °F 35.1 °F 66% 30.10 in 10.0 mi NNE 17.3 mph 28.8 mph N/A   Overcast
6:56 PM 45.0 °F 38.2 °F 35.1 °F 68% 30.12 in 10.0 mi NNE 15.0 mph 27.6 mph 0.00 in   Overcast
7:56 PM 42.1 °F 34.2 °F 37.0 °F 82% 30.14 in 9.0 mi NNE 16.1 mph 24.2 mph 0.00 in Rain Light Rain
8:56 PM 41.0 °F 34.7 °F 37.0 °F 86% 30.13 in 9.0 mi NNE 10.4 mph 17.3 mph 0.01 in Rain Light Rain
9:56 PM 41.0 °F 33.1 °F 34.0 °F 76% 30.13 in 10.0 mi NNE 15.0 mph 23.0 mph 0.01 in   Overcast
10:56 PM 41.0 °F 33.5 °F 33.1 °F 73% 30.13 in 10.0 mi NNE 13.8 mph 19.6 mph N/A   Overcast
11:56 PM 41.0 °F 33.9 °F 32.0 °F 70% 30.11 in 10.0 mi NNE 12.7 mph 23.0 mph 0.00 in Rain Light Rain